TimeCDT,TemperatureF,Dew PointF,Humidity,Sea Level PressureIn,VisibilityMPH,Wind Direction,Wind SpeedMPH,Gust SpeedMPH,PrecipitationIn,Events,Conditions,WindDirDegrees,DateUTC
12:53 AM,43.0,39.0,86,30.20,10.0,NNW,9.2,-,N/A,,Partly Cloudy,330,2012-04-23 05:53:00
1:53 AM,39.0,37.0,93,30.19,10.0,NW,8.1,-,N/A,,Partly Cloudy,320,2012-04-23 06:53:00
2:53 AM,37.9,36.0,93,30.17,8.0,NW,5.8,-,N/A,,Clear,320,2012-04-23 07:53:00
3:53 AM,37.0,36.0,96,30.18,8.0,NW,8.1,-,N/A,,Clear,320,2012-04-23 08:53:00
4:53 AM,37.0,36.0,96,30.18,5.0,NW,5.8,-,N/A,,Clear,310,2012-04-23 09:53:00
5:53 AM,35.1,34.0,96,30.17,4.0,NW,6.9,-,N/A,,Clear,310,2012-04-23 10:53:00
6:22 AM,35.6,33.8,93,30.16,2.0,NW,6.9,-,N/A,,Clear,310,2012-04-23 11:22:00
6:53 AM,35.1,34.0,96,30.18,2.5,NW,5.8,-,N/A,,Clear,310,2012-04-23 11:53:00
7:09 AM,35.6,35.6,100,30.17,3.0,NW,5.8,-,N/A,,Clear,310,2012-04-23 12:09:00
7:53 AM,41.0,39.0,93,30.19,6.0,NW,6.9,-,N/A,,Clear,310,2012-04-23 12:53:00
8:53 AM,48.0,42.1,80,30.18,10.0,North,8.1,-,N/A,,Clear,350,2012-04-23 13:53:00
9:53 AM,52.0,42.1,69,30.17,10.0,NW,9.2,-,N/A,,Clear,320,2012-04-23 14:53:00
10:53 AM,54.0,41.0,62,30.17,10.0,WNW,13.8,20.7,N/A,,Partly Cloudy,300,2012-04-23 15:53:00
11:53 AM,55.9,39.9,55,30.15,10.0,North,8.1,-,N/A,,Scattered Clouds,350,2012-04-23 16:53:00
12:53 PM,57.9,39.9,51,30.12,10.0,North,9.2,18.4,N/A,,Clear,350,2012-04-23 17:53:00
1:53 PM,60.1,39.0,46,30.10,10.0,NNW,10.4,20.7,N/A,,Scattered Clouds,340,2012-04-23 18:53:00
2:53 PM,61.0,37.9,42,30.07,10.0,NNW,13.8,-,N/A,,Mostly Cloudy,330,2012-04-23 19:53:00
3:53 PM,62.1,37.0,39,30.04,10.0,NW,10.4,19.6,N/A,,Scattered Clouds,310,2012-04-23 20:53:00
4:53 PM,63.0,36.0,37,30.02,10.0,NNW,12.7,-,N/A,,Scattered Clouds,330,2012-04-23 21:53:00
5:53 PM,63.0,35.1,35,30.00,10.0,NW,12.7,20.7,N/A,,Partly Cloudy,320,2012-04-23 22:53:00
6:53 PM,62.1,36.0,38,29.97,10.0,NW,11.5,-,N/A,,Clear,310,2012-04-23 23:53:00
7:53 PM,57.9,37.0,46,29.95,10.0,West,3.5,-,N/A,,Mostly Cloudy,280,2012-04-24 00:53:00
8:53 PM,54.0,36.0,51,29.93,10.0,Calm,Calm,-,N/A,,Clear,0,2012-04-24 01:53:00
9:53 PM,52.0,36.0,54,29.93,10.0,SSW,4.6,-,N/A,,Clear,210,2012-04-24 02:53:00
10:53 PM,51.1,35.1,54,29.90,10.0,SW,5.8,-,N/A,,Clear,220,2012-04-24 03:53:00
11:53 PM,48.9,35.1,59,29.88,10.0,SW,4.6,-,N/A,,Clear,220,2012-04-24 04:53:00